Year,Month,Day,Hour,Minute,Value (Times are PST for windspeed in km/hr)
2011,02,28,00,00,6.00
2011,02,28,00,01,6.80
2011,02,28,00,02,5.30
2011,02,28,00,03,5.10
2011,02,28,00,04,5.50
2011,02,28,00,05,3.60
2011,02,28,00,06,3.80
2011,02,28,00,07,6.00
2011,02,28,00,08,6.70
2011,02,28,00,09,6.50
2011,02,28,00,10,2.70
2011,02,28,00,11,5.30
2011,02,28,00,12,7.90
2011,02,28,00,13,12.40
2011,02,28,00,14,9.00
2011,02,28,00,15,10.80
2011,02,28,00,16,8.10
2011,02,28,00,17,6.40
2011,02,28,00,18,5.50
2011,02,28,00,19,4.70
2011,02,28,00,20,5.10
2011,02,28,00,21,3.90
2011,02,28,00,22,8.60
2011,02,28,00,23,4.60
2011,02,28,00,24,3.20
2011,02,28,00,25,7.70
2011,02,28,00,26,9.40
2011,02,28,00,27,10.00
2011,02,28,00,28,10.70
2011,02,28,00,29,13.60
2011,02,28,00,30,6.00
2011,02,28,00,31,11.50
2011,02,28,00,32,17.80
2011,02,28,00,33,17.20
2011,02,28,00,34,12.70
2011,02,28,00,35,17.30
2011,02,28,00,36,15.30
2011,02,28,00,37,18.60
2011,02,28,00,38,15.20
2011,02,28,00,39,13.50
2011,02,28,00,40,19.10
2011,02,28,00,41,11.00
2011,02,28,00,42,7.70
2011,02,28,00,43,14.30
2011,02,28,00,44,11.30
2011,02,28,00,45,6.70
2011,02,28,00,46,16.00
2011,02,28,00,47,11.80
2011,02,28,00,48,12.70
2011,02,28,00,49,16.20
2011,02,28,00,50,9.00
2011,02,28,00,51,19.80
2011,02,28,00,52,11.10
2011,02,28,00,53,6.70
2011,02,28,00,54,14.90
2011,02,28,00,55,8.90
2011,02,28,00,56,6.10
2011,02,28,00,57,12.00
2011,02,28,00,58,12.30
2011,02,28,00,59,13.10
2011,02,28,01,00,17.90
2011,02,28,01,01,19.20
2011,02,28,01,02,15.90
2011,02,28,01,03,13.50
2011,02,28,01,04,14.90
2011,02,28,01,05,9.60
2011,02,28,01,06,8.00
2011,02,28,01,07,3.70
2011,02,28,01,08,4.30
2011,02,28,01,09,6.30
2011,02,28,01,10,8.10
2011,02,28,01,11,9.20
2011,02,28,01,12,7.50
2011,02,28,01,13,2.40
2011,02,28,01,14,5.40
2011,02,28,01,15,11.60
2011,02,28,01,16,13.60
2011,02,28,01,17,11.90
2011,02,28,01,18,12.50
2011,02,28,01,19,15.70
2011,02,28,01,20,12.00
2011,02,28,01,21,10.30
2011,02,28,01,22,11.80
2011,02,28,01,23,15.90
2011,02,28,01,24,14.00
2011,02,28,01,25,21.10
2011,02,28,01,26,5.00
2011,02,28,01,27,17.90
2011,02,28,01,28,21.80
2011,02,28,01,29,20.60
2011,02,28,01,30,23.40
2011,02,28,01,31,16.70
2011,02,28,01,32,22.40
2011,02,28,01,33,18.10
2011,02,28,01,34,15.30
2011,02,28,01,35,17.10
2011,02,28,01,36,12.90
2011,02,28,01,37,19.10
2011,02,28,01,38,16.50
2011,02,28,01,39,12.00
2011,02,28,01,40,17.60
2011,02,28,01,41,14.10
2011,02,28,01,42,22.90
2011,02,28,01,43,10.10
2011,02,28,01,44,9.40
2011,02,28,01,45,11.10
2011,02,28,01,46,10.10
2011,02,28,01,47,8.70
2011,02,28,01,48,8.80
2011,02,28,01,49,7.40
2011,02,28,01,50,9.00
2011,02,28,01,51,7.10
2011,02,28,01,52,5.70
2011,02,28,01,53,5.70
2011,02,28,01,54,4.40
2011,02,28,01,55,7.10
2011,02,28,01,56,4.80
2011,02,28,01,57,6.10
2011,02,28,01,58,4.70
2011,02,28,01,59,4.10
2011,02,28,02,00,4.80
2011,02,28,02,01,8.40
2011,02,28,02,02,9.00
2011,02,28,02,03,10.50
2011,02,28,02,04,13.30
2011,02,28,02,05,9.50
2011,02,28,02,06,12.50
2011,02,28,02,07,8.10
2011,02,28,02,08,9.60
2011,02,28,02,09,5.40
2011,02,28,02,10,6.10
2011,02,28,02,11,8.20
2011,02,28,02,12,6.60
2011,02,28,02,13,2.70
2011,02,28,02,14,4.10
2011,02,28,02,15,4.60
2011,02,28,02,16,6.30
2011,02,28,02,17,5.50
2011,02,28,02,18,6.00
2011,02,28,02,19,6.30
2011,02,28,02,20,7.60
2011,02,28,02,21,4.60
2011,02,28,02,22,6.30
2011,02,28,02,23,5.60
2011,02,28,02,24,7.20
2011,02,28,02,25,7.30
2011,02,28,02,26,6.80
2011,02,28,02,27,6.80
2011,02,28,02,28,5.40
2011,02,28,02,29,4.70
2011,02,28,02,30,5.60
2011,02,28,02,31,4.80
2011,02,28,02,32,6.60
2011,02,28,02,33,5.40
2011,02,28,02,34,6.70
2011,02,28,02,35,5.30
2011,02,28,02,36,3.80
2011,02,28,02,37,4.30
2011,02,28,02,38,6.10
2011,02,28,02,39,5.10
2011,02,28,02,40,8.10
2011,02,28,02,41,6.50
2011,02,28,02,42,6.10
2011,02,28,02,43,5.90
2011,02,28,02,44,4.10
2011,02,28,02,45,4.50
2011,02,28,02,46,4.10
2011,02,28,02,47,7.10
2011,02,28,02,48,5.60
2011,02,28,02,49,5.50
2011,02,28,02,50,3.00
2011,02,28,02,51,3.70
2011,02,28,02,52,2.80
2011,02,28,02,53,4.70
2011,02,28,02,54,3.90
2011,02,28,02,55,1.10
2011,02,28,02,56,0.50
2011,02,28,02,57,0.40
2011,02,28,02,58,1.20
2011,02,28,02,59,1.50
2011,02,28,03,00,1.80
2011,02,28,03,01,2.10
2011,02,28,03,02,2.10
2011,02,28,03,03,2.00
2011,02,28,03,04,0.70
2011,02,28,03,05,0.50
2011,02,28,03,06,0.80
2011,02,28,03,07,0.40
2011,02,28,03,08,0.10
2011,02,28,03,09,0.10
2011,02,28,03,10,0.20
2011,02,28,03,11,0.00
2011,02,28,03,12,0.20
2011,02,28,03,13,1.40
2011,02,28,03,14,0.00
2011,02,28,03,15,0.00
2011,02,28,03,16,0.00
2011,02,28,03,17,0.60
2011,02,28,03,18,1.40
2011,02,28,03,19,1.20
2011,02,28,03,20,1.60
2011,02,28,03,21,2.60
2011,02,28,03,22,4.60
2011,02,28,03,23,2.00
2011,02,28,03,24,2.10
2011,02,28,03,25,4.20
2011,02,28,03,26,2.30
2011,02,28,03,27,7.60
2011,02,28,03,28,6.40
2011,02,28,03,29,2.90
2011,02,28,03,30,5.10
2011,02,28,03,31,7.70
2011,02,28,03,32,3.30
2011,02,28,03,33,8.00
2011,02,28,03,34,9.80
2011,02,28,03,35,4.10
2011,02,28,03,36,10.40
2011,02,28,03,37,6.40
2011,02,28,03,38,7.40
2011,02,28,03,39,8.90
2011,02,28,03,40,6.20
2011,02,28,03,41,10.60
2011,02,28,03,42,9.30
2011,02,28,03,43,8.70
2011,02,28,03,44,6.40
2011,02,28,03,45,8.00
2011,02,28,03,46,3.70
2011,02,28,03,47,8.00
2011,02,28,03,48,4.90
2011,02,28,03,49,2.50
2011,02,28,03,50,3.40
2011,02,28,03,51,5.70
2011,02,28,03,52,4.40
2011,02,28,03,53,4.50
2011,02,28,03,54,3.70
2011,02,28,03,55,3.70
2011,02,28,03,56,4.50
2011,02,28,03,57,2.40
2011,02,28,03,58,3.30
2011,02,28,03,59,2.80
2011,02,28,04,00,0.60
2011,02,28,04,01,0.00
2011,02,28,04,02,0.90
2011,02,28,04,03,1.60
2011,02,28,04,04,0.00
2011,02,28,04,05,0.80
2011,02,28,04,06,4.50
2011,02,28,04,07,3.30
2011,02,28,04,08,4.40
2011,02,28,04,09,4.60
2011,02,28,04,10,4.30
2011,02,28,04,11,3.20
2011,02,28,04,12,3.20
2011,02,28,04,13,2.50
2011,02,28,04,14,4.80
2011,02,28,04,15,6.10
2011,02,28,04,16,5.20
2011,02,28,04,17,7.20
2011,02,28,04,18,4.10
2011,02,28,04,19,7.10
2011,02,28,04,20,4.50
2011,02,28,04,21,5.30
2011,02,28,04,22,2.40
2011,02,28,04,23,3.30
2011,02,28,04,24,5.50
2011,02,28,04,25,3.80
2011,02,28,04,26,2.00
2011,02,28,04,27,2.50
2011,02,28,04,28,2.40
2011,02,28,04,29,5.30
2011,02,28,04,30,4.40
2011,02,28,04,31,3.70
2011,02,28,04,32,7.80
2011,02,28,04,33,6.60
2011,02,28,04,34,14.50
2011,02,28,04,35,8.10
2011,02,28,04,36,11.40
2011,02,28,04,37,11.00
2011,02,28,04,38,12.20
2011,02,28,04,39,11.90
2011,02,28,04,40,11.70
2011,02,28,04,41,10.40
2011,02,28,04,42,12.10
2011,02,28,04,43,10.00
2011,02,28,04,44,11.00
2011,02,28,04,45,10.60
2011,02,28,04,46,10.70
2011,02,28,04,47,12.30
2011,02,28,04,48,9.90
2011,02,28,04,49,12.30
2011,02,28,04,50,8.20
2011,02,28,04,51,11.00
2011,02,28,04,52,8.10
2011,02,28,04,53,6.90
2011,02,28,04,54,11.90
2011,02,28,04,55,10.70
2011,02,28,04,56,11.60
2011,02,28,04,57,10.70
2011,02,28,04,58,8.30
2011,02,28,04,59,7.30
2011,02,28,05,00,8.40
2011,02,28,05,01,8.20
2011,02,28,05,02,8.10
2011,02,28,05,03,8.60
2011,02,28,05,04,14.90
2011,02,28,05,05,10.80
2011,02,28,05,06,8.40
2011,02,28,05,07,8.30
2011,02,28,05,08,6.60
2011,02,28,05,09,5.10
2011,02,28,05,10,7.30
2011,02,28,05,11,9.70
2011,02,28,05,12,6.70
2011,02,28,05,13,9.70
2011,02,28,05,14,8.70
2011,02,28,05,15,6.20
2011,02,28,05,16,7.20
2011,02,28,05,17,3.90
2011,02,28,05,18,5.30
2011,02,28,05,19,5.10
2011,02,28,05,20,6.10
2011,02,28,05,21,4.70
2011,02,28,05,22,6.40
2011,02,28,05,23,5.40
2011,02,28,05,24,5.70
2011,02,28,05,25,4.10
2011,02,28,05,26,3.90
2011,02,28,05,27,4.40
2011,02,28,05,28,5.20
2011,02,28,05,29,4.40
2011,02,28,05,30,5.10
2011,02,28,05,31,5.40
2011,02,28,05,32,8.10
2011,02,28,05,33,5.40
2011,02,28,05,34,6.50
2011,02,28,05,35,5.10
2011,02,28,05,36,2.90
2011,02,28,05,37,6.70
2011,02,28,05,38,3.90
2011,02,28,05,39,3.70
2011,02,28,05,40,4.10
2011,02,28,05,41,2.60
2011,02,28,05,42,2.00
2011,02,28,05,43,3.10
2011,02,28,05,44,2.90
2011,02,28,05,45,3.10
2011,02,28,05,46,2.50
2011,02,28,05,47,0.50
2011,02,28,05,48,0.50
2011,02,28,05,49,2.20
2011,02,28,05,50,0.10
2011,02,28,05,51,0.60
2011,02,28,05,52,0.10
2011,02,28,05,53,0.00
2011,02,28,05,54,1.80
2011,02,28,05,55,1.30
2011,02,28,05,56,1.40
2011,02,28,05,57,1.20
2011,02,28,05,58,0.70
2011,02,28,05,59,0.00
2011,02,28,06,00,1.20
2011,02,28,06,01,0.00
2011,02,28,06,02,1.90
2011,02,28,06,03,0.40
2011,02,28,06,04,0.80
2011,02,28,06,05,3.70
2011,02,28,06,06,4.40
2011,02,28,06,07,1.70
2011,02,28,06,08,7.20
2011,02,28,06,09,3.90
2011,02,28,06,10,0.60
2011,02,28,06,11,4.00
2011,02,28,06,12,3.40
2011,02,28,06,13,3.90
2011,02,28,06,14,3.10
2011,02,28,06,15,3.80
2011,02,28,06,16,4.10
2011,02,28,06,17,3.10
2011,02,28,06,18,5.20
2011,02,28,06,19,2.70
2011,02,28,06,20,1.90
2011,02,28,06,21,0.00
2011,02,28,06,22,0.00
2011,02,28,06,23,0.00
2011,02,28,06,24,0.10
2011,02,28,06,25,0.00
2011,02,28,06,26,0.10
2011,02,28,06,27,1.70
2011,02,28,06,28,2.90
2011,02,28,06,29,1.80
2011,02,28,06,30,0.60
2011,02,28,06,31,2.30
2011,02,28,06,32,2.80
2011,02,28,06,33,1.80
2011,02,28,06,34,1.20
2011,02,28,06,35,0.10
2011,02,28,06,36,1.80
2011,02,28,06,37,1.60
2011,02,28,06,38,0.50
2011,02,28,06,39,1.20
2011,02,28,06,40,2.30
2011,02,28,06,41,0.90
2011,02,28,06,42,0.20
2011,02,28,06,43,0.20
2011,02,28,06,44,0.00
2011,02,28,06,45,0.00
2011,02,28,06,46,0.40
2011,02,28,06,47,0.00
2011,02,28,06,48,0.20
2011,02,28,06,49,0.20
2011,02,28,06,50,2.00
2011,02,28,06,51,3.70
2011,02,28,06,52,2.80
2011,02,28,06,53,2.50
2011,02,28,06,54,0.90
2011,02,28,06,55,0.20
2011,02,28,06,56,1.80
2011,02,28,06,57,0.60
2011,02,28,06,58,2.60
2011,02,28,06,59,3.50
2011,02,28,07,00,2.40
2011,02,28,07,01,2.20
2011,02,28,07,02,3.50
2011,02,28,07,03,5.20
2011,02,28,07,04,3.40
2011,02,28,07,05,5.20
2011,02,28,07,06,6.10
2011,02,28,07,07,4.90
2011,02,28,07,08,3.90
2011,02,28,07,09,1.50
2011,02,28,07,10,3.40
2011,02,28,07,11,2.30
2011,02,28,07,12,4.20
2011,02,28,07,13,2.90
2011,02,28,07,14,4.20
2011,02,28,07,15,4.90
2011,02,28,07,16,3.40
2011,02,28,07,17,2.90
2011,02,28,07,18,3.20
2011,02,28,07,19,1.50
2011,02,28,07,20,1.80
2011,02,28,07,21,2.50
2011,02,28,07,22,3.10
2011,02,28,07,23,2.30
2011,02,28,07,24,2.50
2011,02,28,07,25,2.40
2011,02,28,07,26,3.60
2011,02,28,07,27,3.80
2011,02,28,07,28,3.60
2011,02,28,07,29,3.70
2011,02,28,07,30,2.10
2011,02,28,07,31,0.50
2011,02,28,07,32,0.90
2011,02,28,07,33,0.80
2011,02,28,07,34,3.70
2011,02,28,07,35,5.70
2011,02,28,07,36,3.40
2011,02,28,07,37,2.10
2011,02,28,07,38,2.60
2011,02,28,07,39,2.60
2011,02,28,07,40,2.20
2011,02,28,07,41,2.60
2011,02,28,07,42,4.90
2011,02,28,07,43,1.40
2011,02,28,07,44,1.20
2011,02,28,07,45,1.40
2011,02,28,07,46,0.00
2011,02,28,07,47,0.10
2011,02,28,07,48,2.60
2011,02,28,07,49,4.60
2011,02,28,07,50,3.50
2011,02,28,07,51,3.80
2011,02,28,07,52,3.60
2011,02,28,07,53,1.50
2011,02,28,07,54,1.30
2011,02,28,07,55,0.10
2011,02,28,07,56,2.90
2011,02,28,07,57,1.00
2011,02,28,07,58,0.00
2011,02,28,07,59,0.50
2011,02,28,08,00,1.20
2011,02,28,08,01,0.80
2011,02,28,08,02,1.90
2011,02,28,08,03,1.20
2011,02,28,08,04,0.40
2011,02,28,08,05,0.00
2011,02,28,08,06,0.30
2011,02,28,08,07,0.00
2011,02,28,08,08,0.40
2011,02,28,08,09,0.30
2011,02,28,08,10,1.00
2011,02,28,08,11,0.80
2011,02,28,08,12,1.40
2011,02,28,08,13,1.10
2011,02,28,08,14,2.20
2011,02,28,08,15,1.60
2011,02,28,08,16,3.10
2011,02,28,08,17,2.80
2011,02,28,08,18,2.60
2011,02,28,08,19,2.50
2011,02,28,08,20,3.60
2011,02,28,08,21,3.30
2011,02,28,08,22,3.30
2011,02,28,08,23,2.90
2011,02,28,08,24,3.70
2011,02,28,08,25,2.80
2011,02,28,08,26,5.20
2011,02,28,08,27,5.70
2011,02,28,08,28,4.50
2011,02,28,08,29,5.90
2011,02,28,08,30,3.80
2011,02,28,08,31,4.80
2011,02,28,08,32,6.70
2011,02,28,08,33,2.10
2011,02,28,08,34,3.90
2011,02,28,08,35,5.90
2011,02,28,08,36,4.00
2011,02,28,08,37,5.90
2011,02,28,08,38,4.40
2011,02,28,08,39,6.80
2011,02,28,08,40,7.20
2011,02,28,08,41,7.40
2011,02,28,08,42,5.20
2011,02,28,08,43,5.70
2011,02,28,08,44,5.30
2011,02,28,08,45,2.80
2011,02,28,08,46,2.20
2011,02,28,08,47,5.20
2011,02,28,08,48,7.20
2011,02,28,08,49,7.10
2011,02,28,08,50,6.40
2011,02,28,08,51,8.30
2011,02,28,08,52,8.80
2011,02,28,08,53,12.90
2011,02,28,08,54,10.80
2011,02,28,08,55,10.40
2011,02,28,08,56,9.70
2011,02,28,08,57,10.40
2011,02,28,08,58,6.20
2011,02,28,08,59,1.50
2011,02,28,09,00,5.10
2011,02,28,09,01,7.90
2011,02,28,09,02,8.70
2011,02,28,09,03,8.40
2011,02,28,09,04,8.90
2011,02,28,09,05,10.80
2011,02,28,09,06,10.40
2011,02,28,09,07,9.10
2011,02,28,09,08,7.60
2011,02,28,09,09,8.50
2011,02,28,09,10,7.10
2011,02,28,09,11,4.80
2011,02,28,09,12,3.50
2011,02,28,09,13,4.10
2011,02,28,09,14,3.40
2011,02,28,09,15,4.80
2011,02,28,09,16,5.10
2011,02,28,09,17,6.10
2011,02,28,09,18,1.20
2011,02,28,09,19,1.50
2011,02,28,09,20,1.10
2011,02,28,09,21,2.90
2011,02,28,09,22,2.80
2011,02,28,09,23,2.90
2011,02,28,09,24,6.30
2011,02,28,09,25,7.60
2011,02,28,09,26,6.60
2011,02,28,09,27,4.00
2011,02,28,09,28,2.00
2011,02,28,09,29,2.30
2011,02,28,09,30,0.80
2011,02,28,09,31,0.10
2011,02,28,09,32,0.00
2011,02,28,09,33,0.70
2011,02,28,09,34,0.60
2011,02,28,09,35,2.40
2011,02,28,09,36,0.90
2011,02,28,09,37,0.00
2011,02,28,09,38,1.00
2011,02,28,09,39,1.20
2011,02,28,09,40,1.20
2011,02,28,09,41,0.80
2011,02,28,09,42,0.70
2011,02,28,09,43,0.90
2011,02,28,09,44,1.90
2011,02,28,09,45,2.40
2011,02,28,09,46,1.80
2011,02,28,09,47,1.40
2011,02,28,09,48,3.20
2011,02,28,09,49,1.90
2011,02,28,09,50,2.50
2011,02,28,09,51,2.80
2011,02,28,09,52,2.10
2011,02,28,09,53,1.40
2011,02,28,09,54,1.10
2011,02,28,09,55,1.10
2011,02,28,09,56,2.10
2011,02,28,09,57,2.60
2011,02,28,09,58,3.40
2011,02,28,09,59,3.90
2011,02,28,10,00,3.90
2011,02,28,10,01,3.20
2011,02,28,10,02,4.70
2011,02,28,10,03,6.10
2011,02,28,10,04,4.70
2011,02,28,10,05,3.90
2011,02,28,10,06,3.40
2011,02,28,10,07,3.90
2011,02,28,10,08,4.90
2011,02,28,10,09,4.60
2011,02,28,10,10,5.70
2011,02,28,10,11,4.90
2011,02,28,10,12,3.40
2011,02,28,10,13,5.00
2011,02,28,10,14,3.50
2011,02,28,10,15,4.10
2011,02,28,10,16,4.70
2011,02,28,10,17,7.30
2011,02,28,10,18,8.10
2011,02,28,10,19,9.00
2011,02,28,10,20,6.80
2011,02,28,10,21,5.70
2011,02,28,10,22,9.10
2011,02,28,10,23,7.40
2011,02,28,10,24,5.60
2011,02,28,10,25,6.00
2011,02,28,10,26,9.90
2011,02,28,10,27,11.20
2011,02,28,10,28,9.20
2011,02,28,10,29,8.60
2011,02,28,10,30,11.30
2011,02,28,10,31,6.50
2011,02,28,10,32,8.10
2011,02,28,10,33,8.10
2011,02,28,10,34,8.90
2011,02,28,10,35,8.40
2011,02,28,10,36,9.30
2011,02,28,10,37,8.60
2011,02,28,10,38,10.60
2011,02,28,10,39,6.90
2011,02,28,10,40,9.90
2011,02,28,10,41,7.70
2011,02,28,10,42,8.20
2011,02,28,10,43,7.50
2011,02,28,10,44,6.60
2011,02,28,10,45,5.50
2011,02,28,10,46,7.60
2011,02,28,10,47,7.60
2011,02,28,10,48,8.30
2011,02,28,10,49,9.20
2011,02,28,10,50,9.00
2011,02,28,10,51,10.30
2011,02,28,10,52,8.50
2011,02,28,10,53,8.30
2011,02,28,10,54,7.40
2011,02,28,10,55,7.10
2011,02,28,10,56,8.70
2011,02,28,10,57,10.20
2011,02,28,10,58,7.60
2011,02,28,10,59,7.10
2011,02,28,11,00,8.30
2011,02,28,11,01,8.40
2011,02,28,11,02,10.50
2011,02,28,11,03,10.80
2011,02,28,11,04,11.70
2011,02,28,11,05,7.70
2011,02,28,11,06,3.10
2011,02,28,11,07,2.70
2011,02,28,11,08,6.10
2011,02,28,11,09,8.70
2011,02,28,11,10,11.40
2011,02,28,11,11,17.70
2011,02,28,11,12,13.20
2011,02,28,11,13,10.20
2011,02,28,11,14,4.70
2011,02,28,11,15,14.60
2011,02,28,11,16,20.80
2011,02,28,11,17,8.40
2011,02,28,11,18,7.80
2011,02,28,11,19,15.90
2011,02,28,11,20,10.70
2011,02,28,11,21,9.40
2011,02,28,11,22,8.60
2011,02,28,11,23,6.90
2011,02,28,11,24,8.30
2011,02,28,11,25,8.10
2011,02,28,11,26,8.10
2011,02,28,11,27,8.20
2011,02,28,11,28,5.30
2011,02,28,11,29,5.50
2011,02,28,11,30,7.60
2011,02,28,11,31,3.20
2011,02,28,11,32,8.60
2011,02,28,11,33,14.00
2011,02,28,11,34,9.80
2011,02,28,11,35,11.00
2011,02,28,11,36,7.60
2011,02,28,11,37,8.90
2011,02,28,11,38,7.90
2011,02,28,11,39,10.60
2011,02,28,11,40,11.40
2011,02,28,11,41,10.60
2011,02,28,11,42,9.50
2011,02,28,11,43,9.70
2011,02,28,11,44,6.60
2011,02,28,11,45,6.60
2011,02,28,11,46,6.50
2011,02,28,11,47,7.70
2011,02,28,11,48,7.40
2011,02,28,11,49,6.10
2011,02,28,11,50,9.00
2011,02,28,11,51,3.80
2011,02,28,11,52,3.30
2011,02,28,11,53,8.60
2011,02,28,11,54,4.50
2011,02,28,11,55,5.60
2011,02,28,11,56,8.40
2011,02,28,11,57,5.60
2011,02,28,11,58,5.10
2011,02,28,11,59,4.70
2011,02,28,12,00,4.90
2011,02,28,12,01,6.40
2011,02,28,12,02,8.10
2011,02,28,12,03,4.50
2011,02,28,12,04,6.40
2011,02,28,12,05,5.10
2011,02,28,12,06,4.60
2011,02,28,12,07,6.00
2011,02,28,12,08,7.10
2011,02,28,12,09,7.40
2011,02,28,12,10,4.60
2011,02,28,12,11,5.50
2011,02,28,12,12,3.70
2011,02,28,12,13,4.80
2011,02,28,12,14,3.40
2011,02,28,12,15,5.70
2011,02,28,12,16,4.10
2011,02,28,12,17,2.40
2011,02,28,12,18,6.40
2011,02,28,12,19,6.70
2011,02,28,12,20,5.70
2011,02,28,12,21,5.70
2011,02,28,12,22,6.30
2011,02,28,12,23,9.40
2011,02,28,12,24,7.20
2011,02,28,12,25,8.10
2011,02,28,12,26,7.80
2011,02,28,12,27,5.90
2011,02,28,12,28,4.10
2011,02,28,12,29,5.40
2011,02,28,12,30,4.70
2011,02,28,12,31,7.10
2011,02,28,12,32,4.00
2011,02,28,12,33,4.10
2011,02,28,12,34,4.10
2011,02,28,12,35,5.60
2011,02,28,12,36,2.50
2011,02,28,12,37,1.70
2011,02,28,12,38,8.00
2011,02,28,12,39,6.60
2011,02,28,12,40,5.30
2011,02,28,12,41,5.40
2011,02,28,12,42,5.80
2011,02,28,12,43,5.10
2011,02,28,12,44,3.00
2011,02,28,12,45,5.10
2011,02,28,12,46,5.90
2011,02,28,12,47,4.70
2011,02,28,12,48,3.70
2011,02,28,12,49,4.10
2011,02,28,12,50,8.30
2011,02,28,12,51,3.60
2011,02,28,12,52,3.10
2011,02,28,12,53,7.20
2011,02,28,12,54,3.70
2011,02,28,12,55,3.60
2011,02,28,12,56,4.80
2011,02,28,12,57,4.20
2011,02,28,12,58,6.80
2011,02,28,12,59,4.10
2011,02,28,13,00,4.20
2011,02,28,13,01,2.70
2011,02,28,13,02,2.40
2011,02,28,13,03,5.80
2011,02,28,13,04,1.50
2011,02,28,13,05,0.50
2011,02,28,13,06,4.10
2011,02,28,13,07,7.50
2011,02,28,13,08,5.60
2011,02,28,13,09,1.80
2011,02,28,13,10,0.70
2011,02,28,13,11,4.00
2011,02,28,13,12,3.40
2011,02,28,13,13,4.20
2011,02,28,13,14,1.60
2011,02,28,13,15,4.00
2011,02,28,13,16,3.40
2011,02,28,13,17,4.80
2011,02,28,13,18,7.70
2011,02,28,13,19,2.30
2011,02,28,13,20,4.40
2011,02,28,13,21,8.20
2011,02,28,13,22,7.10
2011,02,28,13,23,5.40
2011,02,28,13,24,4.40
2011,02,28,13,25,4.70
2011,02,28,13,26,4.70
2011,02,28,13,27,3.60
2011,02,28,13,28,6.70
2011,02,28,13,29,10.00
2011,02,28,13,30,7.70
2011,02,28,13,31,7.90
2011,02,28,13,32,7.40
2011,02,28,13,33,7.80
2011,02,28,13,34,6.40
2011,02,28,13,35,3.90
2011,02,28,13,36,2.10
2011,02,28,13,37,5.30
2011,02,28,13,38,2.40
2011,02,28,13,39,2.90
2011,02,28,13,40,4.80
2011,02,28,13,41,4.00
2011,02,28,13,42,3.30
2011,02,28,13,43,2.80
2011,02,28,13,44,5.10
2011,02,28,13,45,3.10
2011,02,28,13,46,3.50
2011,02,28,13,47,3.30
2011,02,28,13,48,6.70
2011,02,28,13,49,8.40
2011,02,28,13,50,7.80
2011,02,28,13,51,6.30
2011,02,28,13,52,7.10
2011,02,28,13,53,6.80
2011,02,28,13,54,5.20
2011,02,28,13,55,6.40
2011,02,28,13,56,5.50
2011,02,28,13,57,4.10
2011,02,28,13,58,2.20
2011,02,28,13,59,2.40
2011,02,28,14,00,3.90
2011,02,28,14,01,5.00
2011,02,28,14,02,8.60
2011,02,28,14,03,8.00
2011,02,28,14,04,14.60
2011,02,28,14,05,8.10
2011,02,28,14,06,9.00
2011,02,28,14,07,10.20
2011,02,28,14,08,6.90
2011,02,28,14,09,9.00
2011,02,28,14,10,6.30
2011,02,28,14,11,5.40
2011,02,28,14,12,5.40
2011,02,28,14,13,2.30
2011,02,28,14,14,3.60
2011,02,28,14,15,4.00
2011,02,28,14,16,6.40
2011,02,28,14,17,4.10
2011,02,28,14,18,9.80
2011,02,28,14,19,5.50
2011,02,28,14,20,2.80
2011,02,28,14,21,5.30
2011,02,28,14,22,7.40
2011,02,28,14,23,5.90
2011,02,28,14,24,5.00
2011,02,28,14,25,5.60
2011,02,28,14,26,6.20
2011,02,28,14,27,4.20
2011,02,28,14,28,7.60
2011,02,28,14,29,6.50
2011,02,28,14,30,7.90
2011,02,28,14,31,6.60
2011,02,28,14,32,10.00
2011,02,28,14,33,10.50
2011,02,28,14,34,10.20
2011,02,28,14,35,8.70
2011,02,28,14,36,9.70
2011,02,28,14,37,9.30
2011,02,28,14,38,7.40
2011,02,28,14,39,6.60
2011,02,28,14,40,9.00
2011,02,28,14,41,7.30
2011,02,28,14,42,8.00
2011,02,28,14,43,7.50
2011,02,28,14,44,10.10
2011,02,28,14,45,5.00
2011,02,28,14,46,2.10
2011,02,28,14,47,6.70
2011,02,28,14,48,8.40
2011,02,28,14,49,7.70
2011,02,28,14,50,8.00
2011,02,28,14,51,3.20
2011,02,28,14,52,5.50
2011,02,28,14,53,7.40
2011,02,28,14,54,8.70
2011,02,28,14,55,8.40
2011,02,28,14,56,7.80
2011,02,28,14,57,8.60
2011,02,28,14,58,10.70
2011,02,28,14,59,10.00
2011,02,28,15,00,9.10
2011,02,28,15,01,9.50
2011,02,28,15,02,9.60
2011,02,28,15,03,10.00
2011,02,28,15,04,9.90
2011,02,28,15,05,8.00
2011,02,28,15,06,10.20
2011,02,28,15,07,10.50
2011,02,28,15,08,8.90
2011,02,28,15,09,9.40
2011,02,28,15,10,12.70
2011,02,28,15,11,10.10
2011,02,28,15,12,9.80
2011,02,28,15,13,9.90
2011,02,28,15,14,7.30
2011,02,28,15,15,8.10
2011,02,28,15,16,8.70
2011,02,28,15,17,8.90
2011,02,28,15,18,6.60
2011,02,28,15,19,8.30
2011,02,28,15,20,10.70
2011,02,28,15,21,8.30
2011,02,28,15,22,8.40
2011,02,28,15,23,7.80
2011,02,28,15,24,7.80
2011,02,28,15,25,6.30
2011,02,28,15,26,9.90
2011,02,28,15,27,8.50
2011,02,28,15,28,7.90
2011,02,28,15,29,8.70
2011,02,28,15,30,7.00
2011,02,28,15,31,6.30
2011,02,28,15,32,7.70
2011,02,28,15,33,10.50
2011,02,28,15,34,14.20
2011,02,28,15,35,21.20
2011,02,28,15,36,18.70
2011,02,28,15,37,10.60
2011,02,28,15,38,18.90
2011,02,28,15,39,15.30
2011,02,28,15,40,18.30
2011,02,28,15,41,15.60
2011,02,28,15,42,10.70
2011,02,28,15,43,9.70
2011,02,28,15,44,5.40
2011,02,28,15,45,6.40
2011,02,28,15,46,7.70
2011,02,28,15,47,6.70
2011,02,28,15,48,3.70
2011,02,28,15,49,2.80
2011,02,28,15,50,3.80
2011,02,28,15,51,9.40
2011,02,28,15,52,6.40
2011,02,28,15,53,4.70
2011,02,28,15,54,2.30
2011,02,28,15,55,2.10
2011,02,28,15,56,3.40
2011,02,28,15,57,3.00
2011,02,28,15,58,1.30
2011,02,28,15,59,0.00
2011,02,28,16,00,0.00
2011,02,28,16,01,2.40
2011,02,28,16,02,3.10
2011,02,28,16,03,4.30
2011,02,28,16,04,3.10
2011,02,28,16,05,2.20
2011,02,28,16,06,1.40
2011,02,28,16,07,2.20
2011,02,28,16,08,4.70
2011,02,28,16,09,8.10
2011,02,28,16,10,10.20
2011,02,28,16,11,7.90
2011,02,28,16,12,9.30
2011,02,28,16,13,7.90
2011,02,28,16,14,5.00
2011,02,28,16,15,5.40
2011,02,28,16,16,6.50
2011,02,28,16,17,8.90
2011,02,28,16,18,4.00
2011,02,28,16,19,4.20
2011,02,28,16,20,5.40
2011,02,28,16,21,2.40
2011,02,28,16,22,7.20
2011,02,28,16,23,6.10
2011,02,28,16,24,4.40
2011,02,28,16,25,2.30
2011,02,28,16,26,3.70
2011,02,28,16,27,7.40
2011,02,28,16,28,10.00
2011,02,28,16,29,9.30
2011,02,28,16,30,6.80
2011,02,28,16,31,6.20
2011,02,28,16,32,8.10
2011,02,28,16,33,3.50
2011,02,28,16,34,8.10
2011,02,28,16,35,5.70
2011,02,28,16,36,6.40
2011,02,28,16,37,5.80
2011,02,28,16,38,1.70
2011,02,28,16,39,8.20
2011,02,28,16,40,13.50
2011,02,28,16,41,12.30
2011,02,28,16,42,7.50
2011,02,28,16,43,10.80
2011,02,28,16,44,8.70
2011,02,28,16,45,13.50
2011,02,28,16,46,10.90
2011,02,28,16,47,12.30
2011,02,28,16,48,7.00
2011,02,28,16,49,11.30
2011,02,28,16,50,9.40
2011,02,28,16,51,12.30
2011,02,28,16,52,12.70
2011,02,28,16,53,9.00
2011,02,28,16,54,8.60
2011,02,28,16,55,11.30
2011,02,28,16,56,6.60
2011,02,28,16,57,13.20
2011,02,28,16,58,5.00
2011,02,28,16,59,7.80
2011,02,28,17,00,3.50
2011,02,28,17,01,9.50
2011,02,28,17,02,4.40
2011,02,28,17,03,7.30
2011,02,28,17,04,4.80
2011,02,28,17,05,12.10
2011,02,28,17,06,11.00
2011,02,28,17,07,9.70
2011,02,28,17,08,7.10
2011,02,28,17,09,13.40
2011,02,28,17,10,12.30
2011,02,28,17,11,12.60
2011,02,28,17,12,5.50
2011,02,28,17,13,9.10
2011,02,28,17,14,10.70
2011,02,28,17,15,4.20
2011,02,28,17,16,4.40
2011,02,28,17,17,7.80
2011,02,28,17,18,10.90
2011,02,28,17,19,6.90
2011,02,28,17,20,6.50
2011,02,28,17,21,2.20
2011,02,28,17,22,11.40
2011,02,28,17,23,12.20
2011,02,28,17,24,8.30
2011,02,28,17,25,4.60
2011,02,28,17,26,8.00
2011,02,28,17,27,7.70
2011,02,28,17,28,8.30
2011,02,28,17,29,7.50
2011,02,28,17,30,4.60
2011,02,28,17,31,4.20
2011,02,28,17,32,3.90
2011,02,28,17,33,1.80
2011,02,28,17,34,1.10
2011,02,28,17,35,3.10
2011,02,28,17,36,5.30
2011,02,28,17,37,8.40
2011,02,28,17,38,4.40
2011,02,28,17,39,5.50
2011,02,28,17,40,5.20
2011,02,28,17,41,3.50
2011,02,28,17,42,1.90
2011,02,28,17,43,8.90
2011,02,28,17,44,5.90
2011,02,28,17,45,6.30
2011,02,28,17,46,2.70
2011,02,28,17,47,4.80
2011,02,28,17,48,3.20
2011,02,28,17,49,6.10
2011,02,28,17,50,5.00
2011,02,28,17,51,9.20
2011,02,28,17,52,9.80
2011,02,28,17,53,7.00
2011,02,28,17,54,4.80
2011,02,28,17,55,7.90
2011,02,28,17,56,10.30
2011,02,28,17,57,6.20
2011,02,28,17,58,11.00
2011,02,28,17,59,8.90